Weather History for FAGG - December, 2013

Change the Weather History Date:

Tuesday, December 3, 2013

  Actual Average Record
Temperature  
Mean Temperature 74 °F -  
Max Temperature 85 °F 72 °F 86 °F (2004)
Min Temperature 63 °F 57 °F 50 °F (1996)
Cooling Degree Days 9    
Growing Degree Days 24 (Base 50)    
Moisture  
Dew Point 59 °F    
Average Humidity 72    
Maximum Humidity 88    
Minimum Humidity 30    
Precipitation  
Precipitation 0.08 in - - ()
Sea Level Pressure  
Sea Level Pressure 29.94 in    
Wind  
Wind Speed 7 mph ()    
Max Wind Speed 21 mph    
Max Gust Speed -    
Visibility 8.3 miles    
Events Rain , Thunderstorm    
Averages and records for this station are not official NWS values.
T = Trace of Precipitation, MM = Missing Value Source: Averaged Metar Reports

Daily Weather History Graph

Daily Weather History Graph

Search for Another Location

Airport or City:

Trip Planner

Search our weather history database for the weather conditions in past years. The results will help you decide how hot, cold, wet, or windy it might be!

Date:

Astronomy

Dec. 03, 2013 Rise Set
Actual Time 5:12 AM SAST 7:28 PM SAST
Civil Twilight 4:43 AM SAST 7:57 PM SAST
Nautical Twilight 4:08 AM SAST 8:32 PM SAST
Astronomical Twilight 3:30 AM SAST 9:11 PM SAST
Moon 5:35 AM SAST (12/3) 7:59 PM SAST (12/3)
Length of Visible Light 15h 14m
Length of Day
14h 16m
New Moon, 0% of the Moon is Illuminated
Dec 3
New Moon
Dec 9
First Quarter
Dec 17
Full
Dec 25
Last Quarter
Jan 1
New

Hourly Weather History & Observations

Time (SAST) Temp. Heat Index Dew Point Humidity Pressure Visibility Wind Dir Wind Speed Gust Speed Precip Events Conditions
12:00 AM 64.4 °F - 57.2 °F 77% 30.04 in 6.2 mi NNW 6.9 mph - N/A Rain Rain
2:00 AM 65 °F - 58 °F 73% 29.89 in 25 mi ENE 12.7 mph - -  
3:00 AM 66.2 °F - 57.2 °F 73% 29.92 in - West 5.8 mph - N/A   Clear
4:00 AM 66.2 °F - 57.2 °F 73% 29.89 in - SW 5.8 mph - N/A   Clear
5:00 AM 64 °F - 58 °F 75% 29.91 in 12 mi West 5.8 mph - -   Partly Cloudy
5:00 AM 62.6 °F - 57.2 °F 82% 29.89 in - West 5.8 mph - N/A   Clear
6:00 AM 64.4 °F - 59.0 °F 83% 29.89 in - NNE 4.6 mph - N/A   Clear
7:00 AM 66.2 °F - 60.8 °F 83% 29.89 in - WSW 2.3 mph - N/A   Clear
8:00 AM 70 °F - 60 °F 61% 29.90 in 19 mi NNE 3.5 mph - -   Partly Cloudy
8:00 AM 69.8 °F - 59.0 °F 68% 29.92 in - NNE 3.5 mph - N/A   Clear
9:00 AM 77.0 °F - 59.0 °F 54% 29.89 in - NNW 3.5 mph - N/A   Clear
10:00 AM 80.6 °F 81.5 °F 60.8 °F 51% 29.89 in - WNW 6.9 mph - N/A   Clear
11:00 AM 85 °F - 58 °F 30% 29.87 in 12 mi West 9.2 mph - -   Scattered Clouds
11:00 AM 84.2 °F 83.5 °F 57.2 °F 40% 29.89 in 6.2 mi West 8.1 mph - N/A   Partly Cloudy
12:00 PM 75.2 °F - 59.0 °F 57% 29.89 in 6.2 mi SSW 20.7 mph - N/A   Partly Cloudy
1:00 PM 69.8 °F - 60.8 °F 73% 29.95 in 6.2 mi SW 10.4 mph - N/A   Partly Cloudy
2:00 PM 69 °F - 61 °F 68% 29.95 in 12 mi SSW 10.4 mph - -   Mostly Cloudy
2:00 PM 69.8 °F - 60.8 °F 73% 29.92 in 6.2 mi SSW 10.4 mph - N/A   Mostly Cloudy
3:00 PM 66.2 °F - 60.8 °F 83% 29.95 in 6.2 mi SW 13.8 mph - N/A Rain , Thunderstorm Light Thunderstorms and Rain
4:00 PM 64.4 °F - 60.8 °F 88% 29.95 in 6.2 mi SSW 13.8 mph - N/A Rain Light Rain
5:00 PM 66 °F - 61 °F 80% 29.97 in 12 mi SSW 13.8 mph - -   Partly Cloudy
5:00 PM 66.2 °F - 60.8 °F 83% 29.95 in 6.2 mi SSW 13.8 mph - N/A   Mostly Cloudy
6:00 PM 64.4 °F - 60.8 °F 88% 29.95 in 6.2 mi SSW 5.8 mph - N/A   Mostly Cloudy
7:00 PM 66.2 °F - 59.0 °F 78% 30.01 in 6.2 mi WSW 8.1 mph - N/A   Mostly Cloudy
8:00 PM 65 °F - 58 °F 73% 30.04 in 12 mi West 11.5 mph - -   Mostly Cloudy
8:00 PM 64.4 °F - 59.0 °F 83% 30.04 in 6.2 mi West 11.5 mph - N/A   Mostly Cloudy
9:00 PM 64.4 °F - 59.0 °F 83% 30.04 in 6.2 mi WNW 6.9 mph - N/A   Mostly Cloudy
10:00 PM 64.4 °F - 59.0 °F 83% 30.04 in 6.2 mi West 10.4 mph - N/A   Mostly Cloudy
11:00 PM 64.4 °F - 57.2 °F 77% 30.06 in 6.2 mi West 13.8 mph - N/A   Mostly Cloudy